Weather Roundup
Issued by NWS

Home | Current Version | Previous Version | Text Only | Print | Product List | Glossary On
Versions: 1 2 3 4 5 6 7 8 9 10 11 12 13 14 15 16 17 18 19 20 21 22 23 24 25 26 27 28 29 30 31 32 33 34 35 36 37 38 39 40 41 42 43 44 45 46 47 48 49 50
000
NZUS93 KARX 060410
HRRWXR

CURRENT HOURLY OBSERVATIONS ACROSS
MUCH OF THE UPPER MISSISSIPPI VALLEY
NATIONAL WEATHER SERVICE LA CROSSE WI
1100 PM CDT SUN JUL 05 2015


...SOUTHEAST MINNESOTA...


CITY           SKY/WX    TMP DP  RH WIND       PRES   REMARKS
ROCHESTER      CLEAR     73  66  78 S15       29.89R
ROCHESTER/MAYO FAIR      74  67  77 SE12      29.88R
WINONA         CLEAR     73  63  68 S3        29.87R
AUSTIN         CLEAR     73  66  78 S9        29.88R
ALBERT LEA     PTCLDY    75  66  73 S10       29.87R
DODGE CENTER   PTCLDY    73  66  78 S12       29.88R
PRESTON        CLEAR     71  65  83 S9G16     29.91R
OWATONNA       MOCLDY    75  66  73 S13       29.86R
FARIBAULT      MOCLDY    75  66  73 S9G17     29.85R
$$

...ELSEWHERE IN MINNESOTA...


CITY           SKY/WX    TMP DP  RH WIND       PRES   REMARKS
MINNEAPOLIS    CLOUDY    80  66  62 S13       29.81R
INTNL FALLS    CLOUDY    63  59  87 NW3       29.82R
DULUTH         TSTM      67  64  90 W8        29.83S FOG
RED WING       PTCLDY    77  66  69 S7        29.83R
REDWOOD FALLS  CLOUDY    80  70  71 S7        29.81R
MANKATO        CLOUDY    75  66  73 S12       29.82S
WORTHINGTON    CLOUDY    77  66  69 S12       29.83R
FAIRMONT       CLOUDY    75  66  73 S10       29.84R
$$

...SOUTHWEST WISCONSIN...


CITY           SKY/WX    TMP DP  RH WIND       PRES   REMARKS
LA CROSSE      CLEAR     76  65  68 S9        29.88R
PRAIRIE DU CHI CLEAR     73  64  71 SE7       29.91S
BOSCOBEL       CLEAR     74  65  73 S6        29.92F HAZE
LONE ROCK      CLEAR     70  64  81 CALM      29.94F
PLATTEVILLE    CLEAR     68  66  91 SE8       29.96F
FORT MC COY    CLEAR     73  62  69 S9        29.91S
CAMP DOUGLAS   CLEAR     70  70 100 S3        29.91F
VIROQUA        FAIR      70  65  84 S10       29.93S
WIS DELLS      CLEAR     70  63  78 S9        29.93F
$$

...ELSEWHERE IN WISCONSIN...


CITY           SKY/WX    TMP DP  RH WIND       PRES   REMARKS
MILWAUKEE      PTCLDY    70  59  68 S8        30.00F
MADISON        PTCLDY    74  63  68 S10       29.95F
GREEN BAY      CLEAR     70  62  76 S9        29.94F
EAU CLAIRE     CLEAR     74  65  73 S8        29.85R
BLACK RVR FLS  FAIR      71  63  76 CALM      29.88F
MEDFORD        CLEAR     70  64  80 S9        29.92R
WAUSAU         CLEAR     72  63  73 SE8       29.90F
WIS RAPIDS     CLEAR     72  62  71 S6        29.93F
MARSHFIELD     CLEAR     71  62  73 S10       29.91F
RICE LAKE      PTCLDY    73  65  76 SE7       29.86F
$$

...NORTHEAST IOWA...


CITY           SKY/WX    TMP DP  RH WIND       PRES   REMARKS
DECORAH          N/A    N/A N/A N/A MISG        N/A
MASON CITY     CLEAR     73  67  81 S10       29.90R
CHARLES CITY   CLEAR     73  72  94 SE9       29.90S
OELWEIN        CLEAR     72  70  94 S9G16     29.93
$$

...ELSEWHERE IN IOWA...


CITY           SKY/WX    TMP DP  RH WIND       PRES   REMARKS
DES MOINES     PTCLDY    78  68  71 S13       29.88R
IOWA CITY      CLEAR     72  69  90 SE6       29.94F
FORT DODGE     CLEAR     77  66  69 SE9       29.87R
$$

...NORTHERN ILLINOIS...


CITY           SKY/WX    TMP DP  RH WIND       PRES   REMARKS
CHICAGO-OHARE  CLEAR     72  61  68 S7        30.00F
CHICAGO-MIDWAY FAIR      77  62  59 S8        30.01F
MOLINE         CLEAR     71  65  81 SE8       29.95F
ROCKFORD       PTCLDY    70  63  78 S7        30.01S
PEORIA         CLEAR     75  65  70 S7        30.00F
$$

NOTE: "FAIR" INDICATES FEW OR NO CLOUDS BELOW 12,000 FEET WITH NO
SIGNIFICANT WEATHER AND/OR OBSTRUCTIONS TO VISIBILITY. WIND
SPEEDS ARE IN MILES-PER-HOUR.



USA.gov is the U.S. government's official web portal to all federal, state and local government web resources and services.